Weather in Kedzierzyn-Kozle

Poland     50°20′31″N   18°15′00″E
temp.,
°C
wind,
m/s
gust,
m/s
humid.,
%
clouds,
%
prec.,
mm/h
press.,
hPa
HPBL,
m
25 may, wed
wed2523:00+15nw1193100 0.1 101221
02:00+13n229684 0.1 101218
05:00+14n0096100 0.6 101216
08:00+14ne2598100 12.4 1013309
11:00+14nne3597100 8.4 1013385
14:00+12nnw6996100 18.4 1015564
17:00+12nnw2594100 2.7 1017361
20:00+12ssw249693 2.9 1018155
26 may, thu
thu2623:00+10ssw35965 0.0 101999
02:00+9ssw349519 0.0 101976
05:00+10ssw35925 0.0 101991
08:00+15sw410785 0.0 1019410
11:00+20w69465 0.0 10192077
14:00+20w695395 0.0 10191606
17:00+19w59647 0.1 10191530
20:00+17wnw387544 0.3 1019269
27 may, fri
fri2723:00+13wsw22845 0.0 102015
02:00+12ssw23850 0.0 101940
05:00+11ssw48881 0.0 1018144
08:00+16sw610717 0.0 1016401
11:00+20wsw8125861 0.0 10141679
14:00+21wnw101459100 0.3 10142014
17:00+12nw51088100 1.5 1016686
20:00+13wnw6136729 1.5 1016669
28 may, sat
sat2823:00+9w4127020 0.0 1017279
02:00+8sw377728 0.0 1016113
05:00+7wsw3108021 0.1 1015206
08:00+11w712667 0.1 10161422
11:00+13w8125274 0.4 10162153
14:00+14wnw7114999 0.4 10162215
17:00+15wnw695172 0.1 10171985
20:00+12w386753 0.2 1017226
29 may, sun
sun2923:00+8wsw377433 0.0 1018135
02:00+9sw3766100 0.0 1018188
05:00+7wsw227448 0.0 101844
08:00+11wnw236647 0.0 1018466
11:00+13nw3364100 0.4 1018971
14:00+12nw3467100 0.7 1018871
17:00+14nw336286 0.0 10171062
20:00+11nnw237789 0.0 101775